Wind_Speed
10 11 11 12 13 14 15 16 17 18 18 17 16 15 13 11 9 7 6 4 3 3 2 2 2 3 4 6 9 12 16 17 17 16 15 13 12 12 11 11 10 10 9
8 9 9 10 11 12 13 15 16 16 17 17 17 16 14 12 10 8 7 5 4 3 2 1 1 2 2 3 5 8 11 14 15 16 16 15 15 14 14 13 12 11 10
6 6 7 8 9 10 11 12 14 15 16 16 16 16 15 14 12 10 9 7 5 4 2 1 1 1 2 3 4 6 8 11 13 14 15 16 15 15 14 14 13 12 10
5 4 4 5 6 7 9 10 12 13 14 14 15 15 15 14 13 12 11 9 8 6 4 2 2 0 1 3 4 4 5 8 10 12 13 14 15 14 13 13 12 11 10
3 3 3 3 4 5 6 7 9 10 11 12 13 13 14 14 13 13 12 11 10 9 7 4 3 1 1 2 3 4 4 5 7 9 11 11 11 11 11 11 11 10 8
2 3 3 2 2 2 3 5 6 8 9 10 11 11 12 12 13 13 13 12 12 10 9 6 4 2 1 2 2 3 3 3 4 5 8 8 8 8 7 7 8 8 7
1 2 2 2 2 2 1 2 4 5 7 7 8 9 9 10 11 11 12 12 12 12 10 8 6 4 2 1 2 2 2 2 2 3 4 5 5 6 5 4 4 4 5
2 3 3 3 3 3 2 0 1 2 4 5 6 7 7 8 9 9 10 11 12 12 11 9 7 5 3 1 1 1 2 2 2 3 3 3 3 4 3 3 2 2 2
4 4 4 4 4 4 3 2 1 1 2 3 4 5 6 6 7 8 8 9 10 10 11 10 8 7 5 3 1 1 2 2 3 3 2 2 2 3 3 2 1 1 1
5 6 6 6 6 6 6 5 4 4 4 4 5 5 5 5 6 7 7 7 8 8 9 9 9 8 6 4 3 2 2 2 3 3 2 2 3 2 2 2 1 1 0
6 7 7 7 8 8 8 8 8 7 7 6 6 6 6 6 6 6 7 7 7 6 7 7 7 7 6 5 4 3 3 3 3 3 3 3 2 2 2 2 1 1 0
8 8 8 8 9 10 10 11 11 10 10 9 8 8 8 7 7 7 7 7 7 6 6 5 5 5 5 5 4 3 3 3 3 3 2 2 2 2 2 2 1 0 0
13 12 11 11 11 11 12 12 13 13 12 11 11 10 10 9 9 9 9 9 8 7 6 5 5 5 4 4 3 3 2 2 2 3 3 3 3 3 3 3 2 2 2
17 17 15 14 13 13 14 14 14 14 14 13 13 12 12 11 12 12 12 11 10 10 9 7 6 6 5 4 3 2 1 1 2 3 3 3 4 4 3 4 4 3 3
21 20 19 19 18 17 16 16 16 16 16 15 15 15 14 14 14 14 14 13 12 12 11 10 9 8 8 7 6 4 3 3 3 3 4 4 5 4 4 4 4 4 5
24 23 22 22 22 21 20 19 19 19 19 18 17 17 16 16 16 16 16 15 14 14 13 12 11 11 11 10 8 7 6 6 5 5 5 6 6 6 6 5 5 5 6
27 27 26 26 25 24 24 23 23 22 22 21 20 20 19 19 18 18 18 17 16 16 15 14 14 13 13 13 12 10 9 9 8 8 7 8 7 7 7 7 7 7 7
32 31 31 30 29 28 27 26 26 26 26 24 23 23 22 21 21 21 20 19 18 18 17 17 16 16 16 16 15 14 12 12 11 11 10 10 10 10 10 10 10 9 9
36 36 35 34 33 32 30 28 28 28 29 28 26 26 25 24 24 24 23 22 21 20 20 19 18 18 18 18 17 17 16 15 15 14 13 13 13 13 13 13 12 12 12
40 39 39 38 37 37 35 33 32 31 30 29 28 28 28 27 27 27 26 25 23 23 22 22 21 20 20 20 20 19 19 19 18 18 17 17 17 16 16 16 15 15 14
44 43 44 43 42 40 39 37 36 34 32 30 30 30 29 29 28 29 29 28 26 25 25 25 24 23 22 22 21 22 22 21 21 21 21 21 20 20 19 18 18 17 17
49 49 47 46 45 44 42 41 39 38 36 34 32 31 31 32 31 30 30 29 28 27 27 27 27 26 25 24 23 24 24 24 24 24 24 23 23 22 21 21 20 20 20
48 50 49 47 46 46 45 43 42 40 38 37 36 35 34 34 34 32 29 28 29 29 29 30 29 28 27 27 26 25 25 25 26 25 26 26 25 24 23 23 23 22 22
46 47 48 47 46 44 45 44 42 41 40 38 38 37 36 36 36 34 32 31 31 31 31 31 31 30 29 28 27 26 26 26 26 26 27 27 26 26 25 25 25 24 24
41 42 43 43 44 43 43 43 41 39 39 39 39 39 38 38 36 35 34 33 33 31 30 30 31 32 31 30 29 28 27 27 26 27 27 28 28 27 26 26 27 27 26
33 35 36 37 37 37 39 40 39 39 38 37 37 37 37 37 37 35 35 34 33 32 31 31 31 32 32 32 31 30 29 29 29 28 28 29 29 29 29 29 29 29 28
Wind_Direction
98 96 91 88 84 80 76 73 71 70 69 68 68 70 72 73 76 79 81 82 89 102 111 143 172 189 212 229 230 226 223 222 223 225 229 234 238 242 245 248 258 266 277
103 101 96 91 86 81 77 73 71 69 68 67 65 65 66 67 69 70 71 72 75 89 104 119 160 179 209 231 234 233 232 228 229 230 233 238 243 248 252 253 257 266 274
110 110 105 95 88 82 77 73 70 67 66 65 64 62 61 61 62 62 61 59 59 63 73 85 98 169 226 241 235 238 239 235 233 238 238 241 245 252 257 258 258 262 270
118 122 120 107 93 82 76 71 67 65 63 62 61 60 58 56 56 56 55 53 51 50 50 55 61 71 253 248 234 234 241 242 243 245 240 242 246 254 260 260 258 258 266
130 139 143 133 110 87 74 68 62 59 58 58 57 56 54 53 51 51 49 47 46 44 41 41 44 37 298 274 256 246 247 254 255 249 241 242 248 257 261 257 256 253 257
146 161 169 166 152 110 78 66 58 53 51 51 52 51 50 49 47 46 45 44 43 42 39 35 33 22 335 287 265 254 248 255 253 240 234 238 247 256 255 252 250 246 252
191 195 194 190 190 176 129 69 53 46 43 43 44 44 43 43 42 41 41 40 39 40 39 36 33 27 2 311 266 251 244 235 228 216 220 234 243 243 238 237 239 244 250
235 225 218 207 203 203 200 181 26 25 26 27 28 30 30 31 32 33 32 34 36 37 38 38 36 34 24 0 275 233 215 201 201 201 213 232 233 218 197 194 208 222 239
251 238 228 222 220 218 217 227 258 299 330 344 353 2 7 10 13 18 20 22 27 32 35 38 39 37 34 33 51 117 166 180 191 187 176 166 164 178 177 174 181 193 240
261 249 239 231 229 230 230 233 240 253 272 290 305 318 331 340 347 355 2 6 12 19 25 30 36 37 38 42 59 90 123 149 162 166 165 154 151 154 150 153 167 169 348
266 256 250 244 240 238 238 239 242 248 257 266 278 289 299 309 319 329 338 345 351 359 8 16 25 31 34 40 53 75 109 135 151 164 173 175 163 155 140 129 137 150 36
269 261 255 252 249 247 244 243 243 246 250 256 263 273 283 290 298 306 314 320 327 331 339 349 2 14 20 27 42 60 87 127 150 169 186 200 198 189 174 164 164 197 341
269 265 261 258 255 253 251 248 246 245 247 252 257 264 272 279 285 291 295 300 304 308 309 315 324 332 347 0 17 36 68 126 167 186 203 213 214 217 221 228 237 253 268
272 268 264 260 258 255 254 252 251 249 249 252 256 260 266 273 280 284 287 289 290 291 291 292 294 300 307 313 323 338 340 214 210 211 216 222 225 231 236 243 251 258 269
270 268 265 260 255 252 252 252 251 250 249 251 254 258 262 268 275 279 282 283 283 283 283 281 279 280 285 288 290 293 277 254 242 232 232 235 238 242 243 248 258 265 272
264 262 261 260 256 251 248 248 249 249 249 250 251 255 259 264 269 273 276 277 279 279 279 277 275 272 272 273 274 274 274 267 258 253 249 247 249 251 255 257 263 272 278
258 255 254 253 251 250 248 245 244 246 247 248 249 252 256 260 264 268 271 272 274 276 276 274 273 271 267 266 266 266 267 265 261 258 258 258 259 262 264 266 270 275 279
256 253 252 249 247 246 246 245 244 244 244 244 247 250 253 257 261 265 268 269 272 273 273 272 270 268 266 263 262 263 262 261 260 261 262 263 263 263 264 267 270 271 275
255 253 252 249 247 246 246 245 245 245 246 245 245 248 252 256 259 263 265 267 270 271 271 271 268 266 264 262 262 261 262 260 260 262 263 262 263 264 265 267 269 271 274
257 255 252 250 250 248 247 247 247 249 249 247 246 249 252 255 259 261 263 263 267 268 268 268 267 265 263 261 261 262 264 260 258 260 261 261 262 263 264 265 267 269 272
260 258 254 251 250 249 249 249 250 250 252 253 252 252 255 256 260 264 264 263 265 266 267 267 266 264 262 260 259 259 261 260 258 259 260 261 262 262 263 264 266 269 273
262 259 257 253 251 249 249 250 251 252 254 254 254 256 258 259 260 263 264 264 264 267 268 265 264 263 262 260 258 257 258 257 257 259 260 260 261 260 261 263 265 269 271
262 260 257 255 252 250 248 249 251 252 254 256 257 258 260 262 263 263 266 268 265 265 265 261 258 259 259 258 258 256 257 257 257 258 259 259 259 260 262 263 265 267 270
264 261 258 257 255 253 251 250 251 253 255 257 257 258 259 261 263 265 267 268 266 266 267 261 255 254 255 256 256 255 255 256 257 258 259 258 258 260 260 261 263 265 268
267 263 260 259 257 256 254 252 252 253 255 256 257 259 260 261 261 263 264 266 267 267 266 262 258 255 254 253 253 252 253 255 257 259 258 257 257 257 259 260 262 265 268
272 265 262 259 259 257 256 255 254 255 256 256 256 256 257 258 259 262 263 264 265 265 266 264 262 257 255 253 251 252 252 254 256 258 257 257 256 255 257 259 262 264 267
Height
5910 5911 5911 5910 5910 5909 5908 5907 5906 5905 5905 5904 5904 5903 5903 5903 5903 5903 5903 5903 5903 5903 5903 5904 5904 5905 5906 5906 5907 5908 5910 5912 5914 5915 5917 5919 5920 5921 5922 5922 5923 5923 5923
5912 5912 5912 5912 5912 5911 5910 5909 5909 5908 5907 5906 5906 5905 5905 5904 5904 5904 5904 5904 5903 5903 5904 5904 5905 5905 5906 5906 5907 5908 5910 5911 5913 5914 5916 5917 5918 5919 5920 5921 5921 5922 5922
5912 5913 5913 5913 5913 5913 5912 5911 5911 5910 5909 5908 5908 5907 5906 5906 5906 5906 5905 5905 5904 5904 5904 5904 5905 5905 5906 5906 5907 5908 5909 5910 5912 5913 5914 5916 5917 5918 5918 5919 5920 5920 5921
5913 5914 5914 5914 5914 5914 5913 5913 5912 5912 5911 5910 5910 5909 5908 5908 5907 5907 5906 5906 5905 5905 5905 5905 5905 5905 5906 5906 5906 5907 5908 5909 5910 5911 5913 5914 5915 5916 5917 5917 5918 5919 5919
5913 5914 5915 5915 5915 5915 5914 5914 5914 5913 5913 5912 5912 5911 5910 5909 5909 5908 5908 5907 5906 5906 5905 5905 5905 5905 5906 5906 5906 5907 5908 5909 5909 5910 5911 5912 5914 5914 5915 5916 5916 5917 5918
5914 5914 5915 5915 5915 5915 5915 5915 5915 5914 5914 5914 5913 5912 5912 5911 5910 5910 5909 5908 5907 5907 5906 5906 5906 5905 5905 5905 5906 5906 5907 5908 5909 5909 5910 5912 5913 5913 5914 5914 5915 5916 5917
5914 5915 5915 5915 5915 5915 5915 5915 5915 5915 5915 5914 5914 5914 5913 5912 5912 5911 5910 5909 5909 5908 5907 5906 5906 5906 5905 5905 5905 5906 5907 5908 5908 5909 5910 5911 5912 5913 5913 5914 5914 5915 5916
5914 5914 5915 5915 5915 5915 5915 5915 5915 5915 5915 5915 5914 5914 5914 5913 5913 5912 5911 5911 5910 5909 5908 5907 5906 5906 5905 5905 5905 5906 5906 5907 5908 5909 5910 5911 5911 5912 5913 5914 5914 5915 5916
5913 5913 5914 5914 5914 5914 5914 5914 5915 5914 5914 5914 5914 5914 5914 5913 5913 5912 5912 5911 5911 5910 5909 5908 5907 5906 5906 5905 5905 5905 5906 5907 5908 5909 5910 5911 5911 5912 5913 5914 5915 5915 5916
5912 5912 5912 5912 5912 5913 5913 5913 5913 5913 5913 5913 5913 5913 5913 5913 5912 5912 5912 5911 5911 5910 5909 5909 5908 5907 5906 5906 5905 5905 5906 5907 5908 5909 5910 5911 5912 5913 5913 5914 5915 5915 5916
5911 5910 5910 5910 5910 5911 5911 5911 5911 5911 5912 5912 5912 5911 5911 5911 5911 5911 5911 5910 5910 5910 5909 5909 5908 5908 5907 5906 5906 5906 5906 5907 5908 5909 5910 5911 5912 5913 5913 5914 5915 5915 5916
5909 5908 5908 5908 5908 5908 5908 5908 5909 5909 5909 5909 5909 5909 5909 5909 5909 5909 5909 5909 5909 5909 5909 5908 5908 5908 5907 5907 5907 5906 5907 5907 5908 5909 5910 5911 5912 5912 5913 5914 5915 5915 5915
5906 5906 5905 5905 5905 5905 5905 5905 5905 5906 5906 5906 5907 5907 5907 5907 5907 5907 5907 5907 5907 5907 5907 5907 5907 5907 5907 5907 5907 5907 5907 5907 5908 5909 5909 5910 5911 5912 5913 5913 5914 5914 5915
5902 5902 5902 5902 5902 5902 5902 5902 5902 5902 5903 5903 5903 5904 5904 5904 5904 5904 5905 5905 5905 5905 5905 5905 5905 5905 5906 5906 5906 5906 5907 5907 5907 5908 5908 5909 5910 5911 5911 5912 5913 5913 5913
5898 5897 5897 5897 5897 5898 5898 5898 5899 5899 5899 5899 5900 5900 5901 5901 5901 5901 5901 5901 5902 5902 5902 5902 5903 5903 5904 5904 5904 5905 5905 5906 5906 5907 5907 5908 5909 5909 5910 5911 5911 5911 5912
5893 5892 5892 5891 5891 5892 5893 5893 5894 5894 5894 5895 5895 5895 5896 5897 5897 5898 5898 5898 5898 5899 5899 5899 5900 5900 5901 5901 5902 5903 5903 5904 5905 5905 5906 5906 5907 5908 5908 5909 5909 5909 5910
5887 5886 5886 5885 5885 5886 5886 5887 5887 5888 5889 5889 5890 5890 5891 5892 5892 5893 5893 5894 5894 5895 5895 5895 5896 5897 5897 5898 5899 5900 5900 5901 5902 5903 5903 5904 5905 5905 5906 5906 5907 5907 5907
5880 5880 5879 5879 5879 5879 5879 5879 5880 5881 5881 5883 5884 5885 5885 5886 5887 5888 5888 5889 5890 5890 5891 5891 5892 5893 5893 5894 5895 5896 5897 5898 5899 5900 5900 5901 5901 5902 5903 5904 5904 5904 5904
5871 5871 5871 5872 5872 5872 5872 5873 5873 5873 5874 5875 5877 5878 5879 5880 5881 5882 5882 5883 5884 5885 5886 5887 5888 5889 5889 5890 5890 5891 5892 5894 5895 5896 5896 5897 5898 5899 5900 5900 5901 5901 5901
5861 5861 5862 5863 5864 5864 5865 5866 5866 5867 5867 5868 5870 5871 5873 5874 5874 5875 5876 5877 5878 5880 5881 5882 5882 5884 5885 5885 5886 5886 5887 5888 5890 5891 5892 5893 5894 5895 5895 5896 5897 5897 5897
5849 5850 5851 5852 5854 5855 5857 5858 5859 5860 5861 5862 5863 5864 5865 5867 5868 5868 5870 5871 5872 5873 5875 5876 5877 5878 5879 5880 5881 5881 5882 5883 5884 5885 5887 5888 5889 5890 5890 5891 5892 5892 5892
5836 5837 5838 5839 5842 5844 5847 5849 5850 5852 5854 5855 5856 5857 5858 5859 5861 5862 5863 5864 5866 5867 5868 5869 5870 5871 5873 5874 5875 5876 5877 5878 5878 5879 5880 5882 5883 5884 5885 5886 5887 5887 5887
5821 5823 5825 5827 5829 5832 5835 5838 5840 5843 5845 5847 5849 5850 5851 5852 5854 5855 5857 5857 5858 5859 5860 5862 5863 5865 5866 5867 5868 5870 5871 5872 5872 5874 5874 5875 5876 5877 5879 5880 5881 5881 5882
5807 5809 5811 5814 5817 5820 5823 5827 5830 5833 5836 5838 5840 5842 5844 5845 5847 5848 5849 5850 5851 5852 5853 5854 5856 5857 5858 5860 5861 5862 5864 5865 5866 5867 5868 5868 5869 5871 5872 5873 5874 5875 5875
5795 5796 5799 5802 5805 5809 5812 5816 5820 5823 5827 5829 5831 5833 5835 5837 5839 5840 5842 5843 5844 5845 5846 5847 5848 5849 5851 5852 5853 5855 5856 5857 5858 5860 5861 5862 5863 5864 5865 5866 5867 5868 5869
5784 5785 5788 5791 5795 5798 5802 5806 5810 5813 5817 5820 5822 5824 5826 5828 5830 5832 5834 5835 5836 5837 5838 5839 5840 5841 5843 5844 5845 5847 5848 5850 5851 5852 5854 5855 5856 5858 5859 5859 5860 5861 5862